Starlink 6116

operational
NORAD ID: 56911 Int'l Des: 2023-083 Owner: SPXS Country: US Constellation: starlink
LEOCIRCULAR

About Starlink 6116

Description loading...

Live Position

Loading 3D Globe...

Upcoming Passes

Altitude History

Altitude vs Time

uPlot chart will show altitude changes over time

Two-Line Element Set

1 56911U 23083AM 25353.69823015 -.00001286 00000-0 -80133-4 0 9998
2 56911 43.0032 143.7695 0001229 271.1632 88.9070 15.02524965139786
Epoch: Dec 19, 2025 • Age: 28 hours

Current Status

Altitude 559.5 km
Velocity 7.59 km/s
Sub-Earth Point 24.15°N, 108.49°W
Launch Date Jun 12, 2023
Age 2.5 years
Type internet

Technical Details

Classification Payload
Mass 305.00 kg
Dry Mass 290.00 kg
Total Mass 305.00 kg
Length 0.20 m
Diameter 2.80 m
Span 9.00 m
Shape Box + pan
Manufacturer SPXS
Bus Type Starlink
Phase Status In Orbit
Owner/State SPXS/US

Large Constellations

Loading constellations...